K7ZQU-7 Weather Reports


Display with metric or nautical units.
time (UTC)temp
F
wind
direction
speed
MPH
gust
MPH
rain 1hr
in
rain 24hr
in
rain mn
in
humidity
%
barometer
mb
20260504150949 54 332 3.0 1.0 0.00 0.00 0.00 69 1011.5
20260504150450 54 329 2.0 2.0 0.00 0.00 0.00 70 1011.4
20260504140954 44 114 0.0 0.0 0.00 0.00 0.00 89 1011.4
20260504140455 44 114 0.0 0.0 0.00 0.00 0.00 89 1011.4
20260504130459 42 114 0.0 0.0 0.00 0.00 0.00 87 1011.3
20260504110508 40 114 0.0 0.0 0.00 0.00 0.00 85 1011.4
20260504100514 42 114 0.0 0.0 0.00 0.00 0.00 82 1011.8
20260504081525 43 114 0.0 0.0 0.00 0.00 0.00 73 1012.2
20260504081023 43 114 0.0 0.0 0.00 0.00 0.00 72 1012.4
20260504050541 49 90 0.0 0.0 0.00 0.04 0.00 59 1013.0
20260504045042 50 90 0.0 0.0 0.00 0.04 0.00 57 1012.8
20260504044543 50 90 0.0 0.0 0.00 0.04 0.00 57 1012.8
20260504043545 51 90 0.0 0.0 0.00 0.04 0.00 57 1012.8
20260504042046 52 90 0.0 0.0 0.00 0.04 0.00 54 1012.8
20260504041547 53 90 0.0 0.0 0.00 0.04 0.00 53 1012.8
20260504041048 53 90 0.0 0.0 0.00 0.04 0.00 53 1012.8
20260504040549 54 90 0.0 0.0 0.00 0.04 0.00 52 1012.7
20260504040047 54 90 0.0 0.0 0.00 0.04 0.00 51 1012.7
20260504035548 55 90 0.0 0.0 0.00 0.04 0.00 50 1012.7
20260504035049 55 90 0.0 0.0 0.00 0.04 0.00 49 1012.7
20260504033550 57 90 0.0 0.0 0.00 0.04 0.00 46 1012.6
20260504033051 58 90 0.0 0.0 0.00 0.04 0.00 44 1012.5
20260504032053 59 90 0.0 0.0 0.00 0.04 0.00 40 1012.5
20260504030553 61 90 1.0 0.0 0.00 0.04 0.00 37 1012.5
20260504025555 61 86 0.0 0.0 0.00 0.04 0.00 36 1012.5
20260504025056 62 11 0.0 1.0 0.00 0.04 0.00 36 1012.5
20260504024056 63 49 0.0 0.0 0.00 0.04 0.00 35 1012.5
20260504023557 63 53 1.0 3.0 0.00 0.04 0.00 34 1012.5
20260504023058 63 28 0.0 0.0 0.00 0.04 0.00 34 1012.5
20260504022559 63 4 1.0 1.0 0.00 0.04 0.00 33 1012.6
20260504022057 63 35 0.0 2.0 0.00 0.04 0.00 33 1012.6
20260504021559 63 129 0.0 0.0 0.00 0.04 0.00 34 1012.6
20260504021100 64 6 1.0 3.0 0.00 0.04 0.00 33 1012.5
20260504015601 64 357 3.0 3.0 0.00 0.04 0.00 32 1012.7
20260504015102 64 91 3.0 2.0 0.00 0.04 0.00 31 1012.6
20260504014603 64 27 2.0 3.0 0.00 0.04 0.00 32 1012.7
20260504014104 64 18 0.0 1.0 0.00 0.04 0.00 33 1012.7
20260504013605 64 65 0.0 0.0 0.00 0.04 0.00 32 1012.7
20260504013103 64 8 0.0 0.0 0.00 0.04 0.00 32 1012.7
20260504012604 65 25 0.0 0.0 0.00 0.04 0.00 31 1012.7
20260504012106 65 31 1.0 0.0 0.00 0.04 0.00 30 1012.7
20260504011607 66 158 0.0 4.0 0.00 0.04 0.00 30 1012.7
20260504010606 67 183 1.0 1.0 0.00 0.04 0.00 28 1012.8
20260504010128 67 65 5.0 3.0 0.00 0.04 0.00 28 1012.8
20260504004611 67 14 3.0 4.0 0.00 0.04 0.00 29 1012.8
20260504004109 66 343 4.0 4.0 0.00 0.04 0.00 30 1013.0
20260504003610 67 145 2.0 2.0 0.00 0.04 0.00 29 1012.8
20260504003111 67 41 2.0 3.0 0.00 0.04 0.00 28 1012.8
20260504001612 68 176 2.0 4.0 0.00 0.04 0.00 24 1012.8
20260504000115 68 14 1.0 1.0 0.00 0.04 0.00 26 1012.8
20260503233617 69 162 5.0 3.0 0.00 0.04 0.00 26 1013.0
20260503233118 69 35 4.0 3.0 0.00 0.04 0.00 26 1013.0
20260503232617 69 113 3.0 3.0 0.00 0.04 0.00 26 1013.0
20260503232118 69 68 5.0 1.0 0.00 0.04 0.00 25 1013.0
20260503231619 69 15 4.0 2.0 0.00 0.04 0.00 26 1013.0
20260503230119 69 195 2.0 1.0 0.00 0.04 0.00 26 1013.2
20260503225620 69 45 5.0 5.0 0.00 0.04 0.00 27 1013.3
20260503225121 69 204 4.0 3.0 0.00 0.04 0.00 27 1013.3
20260503224622 69 238 3.0 2.0 0.00 0.04 0.00 26 1013.4
20260503222624 70 70 6.0 6.0 0.00 0.04 0.00 26 1013.6
20260503222125 69 311 3.0 3.0 0.00 0.04 0.00 25 1013.7
20260503221626 69 10 4.0 3.0 0.00 0.04 0.00 27 1013.7
20260503221124 68 129 1.0 3.0 0.00 0.04 0.00 26 1013.8
20260503220126 69 120 2.0 8.0 0.00 0.04 0.00 26 1014.0
20260503215627 70 115 3.0 9.0 0.00 0.04 0.00 29 1013.9
20260503214627 70 333 6.0 4.0 0.00 0.04 0.00 26 1013.9
20260503214128 70 224 1.0 5.0 0.00 0.04 0.00 26 1013.9
20260503213629 70 217 4.0 3.0 0.00 0.04 0.00 26 1014.0
20260503213130 69 132 4.0 1.0 0.00 0.04 0.00 28 1014.0
20260503212631 69 51 3.0 4.0 0.00 0.04 0.00 29 1014.1
20260503212130 68 38 4.0 2.0 0.00 0.04 0.00 29 1014.1
20260503211132 69 49 2.0 6.0 0.00 0.04 0.00 29 1014.1
20260503210634 69 359 1.0 3.0 0.00 0.04 0.00 30 1014.1
20260503210134 70 28 3.0 2.0 0.00 0.04 0.00 26 1014.1
20260503205632 70 153 5.0 2.0 0.00 0.04 0.00 28 1014.3
20260503205133 70 200 3.0 1.0 0.00 0.04 0.00 28 1014.3
20260503204634 70 304 0.0 3.0 0.00 0.04 0.00 29 1014.3
20260503204135 69 101 5.0 6.0 0.00 0.04 0.00 29 1014.4
20260503203637 69 179 5.0 4.0 0.00 0.04 0.00 28 1014.4
20260503203135 69 160 2.0 1.0 0.00 0.04 0.00 29 1014.4
20260503202636 68 59 3.0 1.0 0.00 0.04 0.00 30 1014.5
20260503201638 68 218 3.0 5.0 0.00 0.04 0.00 30 1014.6
20260503201139 68 124 3.0 1.0 0.00 0.04 0.00 30 1014.5
20260503200638 68 176 4.0 8.0 0.00 0.04 0.00 29 1014.7
20260503195640 68 215 3.0 5.0 0.00 0.04 0.00 33 1014.7
20260503195141 68 4 4.0 4.0 0.00 0.04 0.00 32 1014.7
20260503194642 68 160 2.0 2.0 0.00 0.04 0.00 33 1014.7
20260503194143 68 117 5.0 9.0 0.00 0.04 0.00 34 1014.9
20260503193641 67 129 3.0 1.0 0.00 0.04 0.00 36 1014.9
20260503193143 67 197 3.0 1.0 0.00 0.04 0.00 34 1015.0
20260503192645 67 86 4.0 5.0 0.00 0.04 0.00 34 1014.9
20260503192145 67 231 4.0 5.0 0.00 0.04 0.00 36 1015.0
20260503191643 67 27 4.0 3.0 0.00 0.04 0.00 36 1015.0
20260503191144 67 204 5.0 4.0 0.00 0.04 0.00 36 1015.0
20260503185146 66 173 1.0 3.0 0.00 0.04 0.00 38 1015.0
20260503184148 65 117 5.0 6.0 0.00 0.04 0.00 39 1015.1
20260503183649 66 141 4.0 4.0 0.00 0.04 0.00 38 1015.1
20260503183150 65 115 3.0 0.0 0.00 0.04 0.00 39 1015.2
20260503182149 64 46 6.0 3.0 0.00 0.04 0.00 40 1015.1
20260503181650 64 68 5.0 2.0 0.00 0.04 0.00 39 1015.1
20260503181151 64 110 4.0 3.0 0.00 0.04 0.00 41 1015.1
20260503175152 63 86 4.0 4.0 0.00 0.04 0.00 42 1015.1
20260503174653 63 87 3.0 6.0 0.00 0.04 0.00 41 1015.0
20260503174154 63 114 4.0 10.0 0.00 0.04 0.00 41 1015.0
20260503173153 63 224 2.0 6.0 0.00 0.04 0.00 43 1014.9
20260503172654 63 65 3.0 2.0 0.00 0.04 0.00 41 1014.9
20260503171656 63 143 6.0 2.0 0.00 0.04 0.00 40 1014.7
20260503170656 63 114 4.0 4.0 0.00 0.04 0.00 41 1014.7
20260503170248 62 127 2.0 3.0 0.00 0.04 0.00 41 1014.7